Weather History for KSDY - October, 2012

Change the Weather History Date:

Friday, October 5, 2012

  Actual Average Record
Temperature  
Mean Temperature 33 °F -  
Max Temperature 42 °F 62 °F 87 °F (2011)
Min Temperature 24 °F 36 °F 18 °F (1952)
Degree Days  
Heating Degree Days 32    
Moisture  
Dew Point 21 °F    
Average Humidity 63    
Maximum Humidity 86    
Minimum Humidity 36    
Precipitation  
Precipitation 0.00 in - - ()
Sea Level Pressure  
Sea Level Pressure 30.42 in    
Wind  
Wind Speed 7 mph (NNW)    
Max Wind Speed 13 mph    
Max Gust Speed 18 mph    
Visibility 10 miles    
Events      
Averages and records for this station are not official NWS values.
T = Trace of Precipitation, MM = Missing Value Source: NWS Daily Summary

Daily Weather History Graph

Daily Weather History Graph

Search for Another Location

Airport or City:

Trip Planner

Search our weather history database for the weather conditions in past years. The results will help you decide how hot, cold, wet, or windy it might be!

Date:

Astronomy

Oct. 05, 2012 Rise Set
Actual Time 7:02 AM MDT 6:26 PM MDT
Civil Twilight 6:31 AM MDT 6:57 PM MDT
Nautical Twilight 5:55 AM MDT 7:33 PM MDT
Astronomical Twilight 5:19 AM MDT 8:09 PM MDT
Moon 9:32 PM MDT (10/5) 12:32 PM MDT (10/5)
Length of Visible Light 12h 26m
Length of Day
11h 24m
Waning Gibbous, 73% of the Moon is Illuminated
Oct 5
Waning Gibbous
Oct 8
Last Quarter
Oct 15
New
Oct 21
First Quarter
Oct 29
Full

Hourly Weather History & Observations

Time (MDT) Temp. Windchill Dew Point Humidity Pressure Visibility Wind Dir Wind Speed Gust Speed Precip Events Conditions
12:15 AM 26.6 °F 17.5 °F 21.2 °F 80% 30.40 in 10.0 mi WNW 9.2 mph - N/A   Clear
12:35 AM 28.4 °F 21.2 °F 21.2 °F 74% 30.40 in 10.0 mi WNW 6.9 mph - N/A   Clear
12:55 AM 26.6 °F 18.2 °F 21.2 °F 80% 30.40 in 10.0 mi WNW 8.1 mph - N/A   Clear
1:15 AM 26.6 °F 18.2 °F 21.2 °F 80% 30.40 in 10.0 mi WNW 8.1 mph - N/A   Clear
1:35 AM 26.6 °F 20.0 °F 21.2 °F 80% 30.41 in 10.0 mi NE 5.8 mph - N/A   Clear
1:55 AM 28.4 °F 22.2 °F 21.2 °F 74% 30.41 in 10.0 mi NNW 5.8 mph - N/A   Clear
2:15 AM 26.6 °F 20.0 °F 21.2 °F 80% 30.41 in 10.0 mi NW 5.8 mph - N/A   Clear
2:35 AM 26.6 °F 19.1 °F 21.2 °F 80% 30.40 in 10.0 mi NW 6.9 mph - N/A   Clear
2:55 AM 26.6 °F - 21.2 °F 80% 30.40 in 10.0 mi Calm Calm - N/A   Partly Cloudy
3:15 AM 26.6 °F - 21.2 °F 80% 30.40 in 10.0 mi Calm Calm - N/A   Mostly Cloudy
3:35 AM 28.4 °F 24.6 °F 21.2 °F 74% 30.40 in 10.0 mi NNW 3.5 mph - N/A   Overcast
3:55 AM 28.4 °F 22.2 °F 21.2 °F 74% 30.40 in 10.0 mi NNW 5.8 mph - N/A   Overcast
4:15 AM 28.4 °F - 23.0 °F 80% 30.40 in 10.0 mi Calm Calm - N/A   Overcast
4:35 AM 28.4 °F 23.3 °F 23.0 °F 80% 30.40 in 10.0 mi NNW 4.6 mph - N/A   Overcast
4:55 AM 30.2 °F - 24.8 °F 80% 30.40 in 10.0 mi Calm Calm - N/A   Overcast
5:15 AM 30.2 °F 23.4 °F 24.8 °F 80% 30.40 in 10.0 mi North 6.9 mph - N/A   Overcast
5:35 AM 30.2 °F 22.6 °F 24.8 °F 80% 30.41 in 10.0 mi NNW 8.1 mph - N/A   Overcast
5:55 AM 30.2 °F 24.3 °F 23.0 °F 75% 30.41 in 10.0 mi NW 5.8 mph - N/A   Overcast
6:15 AM 30.2 °F 23.4 °F 21.2 °F 69% 30.41 in 10.0 mi NW 6.9 mph - N/A   Mostly Cloudy
6:35 AM 28.4 °F 21.2 °F 21.2 °F 74% 30.41 in 10.0 mi NW 6.9 mph - N/A   Partly Cloudy
6:55 AM 26.6 °F 18.2 °F 23.0 °F 86% 30.41 in 10.0 mi NW 8.1 mph - N/A   Mostly Cloudy
7:15 AM 26.6 °F 19.1 °F 21.2 °F 80% 30.42 in 10.0 mi NW 6.9 mph - N/A   Mostly Cloudy
7:35 AM 26.6 °F 20.0 °F 21.2 °F 80% 30.42 in 10.0 mi NW 5.8 mph - N/A   Mostly Cloudy
7:55 AM 28.4 °F 21.2 °F 23.0 °F 80% 30.42 in 10.0 mi NW 6.9 mph - N/A   Partly Cloudy
8:15 AM 30.2 °F 24.3 °F 24.8 °F 80% 30.43 in 10.0 mi NW 5.8 mph - N/A   Clear
8:35 AM 30.2 °F 24.3 °F 23.0 °F 75% 30.44 in 10.0 mi NNW 5.8 mph - N/A   Clear
8:55 AM 32.0 °F 26.4 °F 24.8 °F 75% 30.44 in 10.0 mi NW 5.8 mph - N/A   Clear
9:15 AM 33.8 °F 27.7 °F 24.8 °F 70% 30.44 in 10.0 mi North 6.9 mph - N/A   Clear
9:35 AM 33.8 °F 26.4 °F 23.0 °F 65% 30.44 in 10.0 mi NNW 9.2 mph - N/A   Clear
9:55 AM 35.6 °F 29.9 °F 23.0 °F 60% 30.45 in 10.0 mi NNW 6.9 mph - N/A   Partly Cloudy
10:35 AM 35.6 °F 28.6 °F 21.2 °F 56% 30.45 in 10.0 mi North 9.2 mph 17.3 mph N/A   Overcast
10:55 AM 35.6 °F 28.0 °F 21.2 °F 56% 30.45 in 10.0 mi North 10.4 mph - N/A   Mostly Cloudy
11:15 AM 35.6 °F 27.5 °F 21.2 °F 56% 30.45 in 10.0 mi North 11.5 mph - N/A   Overcast
11:35 AM 35.6 °F 30.7 °F 21.2 °F 56% 30.45 in 10.0 mi North 5.8 mph - N/A   Overcast
11:55 AM 37.4 °F 29.3 °F 21.2 °F 52% 30.45 in 10.0 mi NNE 12.7 mph 17.3 mph N/A   Overcast
12:35 PM 37.4 °F 32.1 °F 21.2 °F 52% 30.44 in 10.0 mi NNW 6.9 mph - N/A   Mostly Cloudy
12:55 PM 39.2 °F 33.6 °F 21.2 °F 49% 30.44 in 10.0 mi North 8.1 mph - N/A   Mostly Cloudy
1:15 PM 39.2 °F 32.0 °F 19.4 °F 45% 30.43 in 10.0 mi NNW 11.5 mph - N/A   Mostly Cloudy
1:35 PM 39.2 °F 33.0 °F 19.4 °F 45% 30.43 in 10.0 mi North 9.2 mph - N/A   Scattered Clouds
1:55 PM 39.2 °F 33.0 °F 21.2 °F 49% 30.42 in 10.0 mi NNW 9.2 mph - N/A   Scattered Clouds
2:15 PM 41.0 °F 34.7 °F 21.2 °F 45% 30.42 in 10.0 mi North 10.4 mph 16.1 mph N/A   Scattered Clouds
2:35 PM 41.0 °F 35.8 °F 19.4 °F 42% 30.41 in 10.0 mi NNW 8.1 mph 17.3 mph N/A   Partly Cloudy
2:55 PM 42.8 °F 37.5 °F 19.4 °F 39% 30.41 in 10.0 mi NNW 9.2 mph 18.4 mph N/A   Partly Cloudy
3:15 PM 41.0 °F 34.7 °F 19.4 °F 42% 30.40 in 10.0 mi North 10.4 mph - N/A   Scattered Clouds
3:35 PM 42.8 °F 37.5 °F 19.4 °F 39% 30.40 in 10.0 mi North 9.2 mph - N/A   Partly Cloudy
3:55 PM 42.8 °F 38.0 °F 19.4 °F 39% 30.40 in 10.0 mi NNW 8.1 mph - N/A   Clear
4:16 PM 42.8 °F 36.2 °F 19.4 °F 39% 30.40 in 10.0 mi North 12.7 mph 16.1 mph N/A   Partly Cloudy
4:35 PM 42.8 °F 36.6 °F 17.6 °F 36% 30.40 in 10.0 mi NW 11.5 mph - N/A   Partly Cloudy
4:55 PM 42.8 °F 37.0 °F 17.6 °F 36% 30.40 in 10.0 mi NNW 10.4 mph - N/A   Clear
5:15 PM 42.8 °F 36.2 °F 17.6 °F 36% 30.40 in 10.0 mi NNW 12.7 mph - N/A   Clear
5:35 PM 41.0 °F 33.9 °F 17.6 °F 39% 30.41 in 10.0 mi North 12.7 mph - N/A   Clear
5:55 PM 41.0 °F 34.3 °F 17.6 °F 39% 30.41 in 10.0 mi North 11.5 mph - N/A   Clear
6:15 PM 39.2 °F 33.0 °F 17.6 °F 42% 30.42 in 10.0 mi North 9.2 mph - N/A   Clear
6:55 PM 35.6 °F 29.2 °F 19.4 °F 52% 30.42 in 10.0 mi North 8.1 mph - N/A   Clear
7:15 PM 35.6 °F 29.9 °F 19.4 °F 52% 30.43 in 10.0 mi North 6.9 mph - N/A   Clear
7:35 PM 33.8 °F 27.0 °F 17.6 °F 52% 30.43 in 10.0 mi North 8.1 mph - N/A   Clear
7:55 PM 32.0 °F 26.4 °F 17.6 °F 55% 30.44 in 10.0 mi North 5.8 mph - N/A   Clear
8:35 PM 30.2 °F 24.3 °F 17.6 °F 60% 30.44 in 10.0 mi North 5.8 mph - N/A   Clear
8:55 PM 28.4 °F 23.3 °F 17.6 °F 64% 30.44 in 10.0 mi NNW 4.6 mph - N/A   Clear
9:35 PM 26.6 °F 19.1 °F 17.6 °F 69% 30.45 in 10.0 mi NW 6.9 mph - N/A   Clear
9:55 PM 26.6 °F 20.0 °F 17.6 °F 69% 30.45 in 10.0 mi NNW 5.8 mph - N/A   Clear
10:15 PM 26.6 °F 19.1 °F 17.6 °F 69% 30.45 in 10.0 mi NW 6.9 mph - N/A   Clear
10:55 PM 24.8 °F 16.9 °F 19.4 °F 80% 30.45 in 10.0 mi WNW 6.9 mph - N/A   Partly Cloudy
11:15 PM 26.6 °F 20.0 °F 17.6 °F 69% 30.45 in 10.0 mi WNW 5.8 mph - N/A   Clear
11:35 PM 24.8 °F 19.1 °F 17.6 °F 74% 30.45 in 10.0 mi NW 4.6 mph - N/A   Clear
11:55 PM 24.8 °F 16.9 °F 17.6 °F 74% 30.45 in 10.0 mi WNW 6.9 mph - N/A   Clear